Theta_e
344 343 345 348 363 363 368 361 359 359 359 352 348 347 348 347 354 362 343 343 347 348 348 349 348 351 349 350 346 347 350 347 350 348 349 348 349 348 349 350 347 352 352 353 353 352 353 351 351
343 344 349 354 365 368 369 362 363 359 355 350 348 347 350 358 350 345 343 345 347 349 347 348 347 350 350 350 350 350 350 350 349 349 351 351 351 351 348 349 350 350 352 352 352 352 350 347 351
346 349 357 364 364 367 369 364 359 354 351 353 355 352 354 356 346 341 342 346 347 348 348 350 349 350 350 350 351 350 350 351 350 351 350 350 351 350 350 351 349 348 351 352 350 345 347 343 346
349 352 357 369 368 361 364 360 355 354 355 354 353 358 349 347 341 341 344 345 347 348 348 348 351 352 351 350 351 351 351 351 350 348 351 351 349 351 350 348 351 351 351 348 345 349 342 345 344
350 358 368 368 368 361 362 356 356 358 358 357 355 356 352 343 343 341 344 345 346 347 348 350 350 351 350 351 351 350 348 349 347 349 351 349 351 350 348 346 349 350 351 350 349 345 338 344 348
359 359 369 370 366 362 361 360 356 358 357 354 354 354 353 345 341 343 344 345 345 346 347 349 350 350 350 351 351 351 346 347 350 347 346 347 349 349 349 349 350 350 350 350 347 340 343 346 346
360 364 365 365 366 366 362 358 360 360 358 356 351 356 350 342 341 343 344 345 346 347 347 350 350 348 352 352 352 349 349 350 345 346 349 350 350 349 347 348 348 349 350 345 344 344 344 343 342
358 362 363 363 365 369 361 359 357 359 358 349 351 355 351 342 342 344 345 346 347 347 349 349 348 351 350 350 347 351 348 346 349 348 351 348 348 346 346 346 348 350 350 344 344 343 343 343 342
353 366 365 362 363 364 359 360 354 352 355 352 351 350 344 341 343 345 346 346 347 348 347 347 351 352 352 351 349 350 351 348 344 347 345 349 346 346 347 344 349 350 349 346 344 344 343 342 344
359 364 360 354 357 361 360 357 354 356 356 355 354 347 343 341 344 345 346 346 347 347 346 348 350 351 351 348 351 351 350 349 346 346 348 348 347 349 345 346 350 349 347 344 343 344 347 349 347
358 361 355 354 354 356 357 356 352 355 359 356 355 350 344 343 344 345 345 345 345 346 346 349 350 350 349 347 348 349 346 347 348 348 348 347 347 347 343 345 346 347 348 346 348 349 347 348 344
360 355 352 354 353 353 355 354 355 355 359 353 351 347 344 345 345 344 345 346 345 345 347 348 349 349 347 347 347 346 345 344 345 347 348 348 346 345 343 345 348 347 346 347 348 347 350 350 349
357 352 348 345 351 352 355 356 357 356 353 350 349 346 345 345 344 343 344 344 344 346 347 347 349 351 348 349 347 347 346 344 345 346 348 346 345 346 344 345 345 346 346 347 348 349 350 349 348
347 348 344 343 341 353 357 356 355 356 351 350 348 347 345 345 344 344 344 343 343 345 347 348 349 350 349 350 351 351 348 347 345 345 347 349 346 347 347 348 348 348 348 348 349 350 349 347 347
343 345 348 347 348 355 353 358 361 355 352 351 348 347 346 345 344 345 344 342 344 345 346 348 348 348 349 351 352 351 348 347 348 347 349 349 349 351 349 348 348 348 350 351 350 350 348 346 346
342 342 347 354 356 355 356 364 362 354 354 353 349 348 348 347 345 344 342 341 343 344 347 348 346 346 348 348 351 350 348 348 349 348 349 350 351 352 352 349 347 349 350 349 348 348 346 346 346
343 349 343 359 357 356 357 364 358 354 354 355 352 350 349 348 345 343 343 341 341 343 347 348 347 346 349 351 350 351 352 351 351 350 349 351 351 351 350 349 349 350 349 348 347 348 346 346 345
346 347 341 354 356 355 354 360 361 357 355 356 353 351 350 346 344 346 345 343 340 343 345 347 348 347 350 351 351 350 351 352 352 351 350 352 350 349 351 351 351 349 348 348 348 348 347 347 346
341 343 343 351 352 346 345 354 362 361 359 356 353 352 350 344 344 347 347 345 342 342 343 347 348 348 349 350 349 350 351 352 352 352 352 352 352 352 353 350 349 350 348 350 350 350 349 345 347
340 340 337 338 337 335 340 342 358 361 357 358 356 353 350 345 347 348 348 347 344 342 341 345 348 349 348 348 349 350 352 352 351 350 353 352 352 351 352 350 348 349 349 352 352 351 346 345 346
340 340 336 338 335 341 346 351 352 355 355 354 353 354 351 347 347 350 349 347 346 341 344 345 348 349 350 349 351 354 354 354 354 353 353 352 353 352 353 349 351 352 351 348 352 350 349 345 347
338 339 335 333 333 346 345 363 359 355 358 357 356 355 354 352 348 348 349 348 347 344 343 346 349 349 350 352 351 352 350 349 350 351 351 354 354 353 354 354 353 354 350 350 352 349 348 349 342
334 335 336 334 334 332 337 344 356 357 358 359 355 356 355 352 351 350 349 348 347 347 345 344 349 351 350 352 352 352 352 349 350 349 353 353 354 353 352 353 354 354 352 353 351 352 350 344 344
332 332 333 334 334 335 334 340 346 349 351 349 348 349 354 354 353 351 349 348 348 347 347 347 349 352 352 353 354 353 351 351 350 351 352 351 352 353 355 354 355 354 352 353 352 353 353 351 349
331 331 334 338 335 334 333 337 347 340 337 344 349 348 346 354 353 353 352 349 348 347 347 348 349 353 353 352 353 354 354 354 352 351 349 350 351 351 355 356 355 352 350 353 353 351 351 352 350
331 330 331 337 335 333 331 340 336 335 340 345 348 349 348 349 353 353 350 350 349 348 348 349 349 352 353 352 352 353 354 352 352 350 347 350 350 351 352 355 353 353 353 353 353 350 349 350 350
330 332 328 329 332 332 332 335 333 337 342 345 349 349 352 350 349 353 351 350 349 349 349 350 351 353 353 353 353 354 354 353 350 348 351 350 349 351 354 355 351 352 353 353 355 351 353 353 352
327 328 329 328 333 334 332 339 338 341 344 345 347 348 350 352 350 352 353 352 350 349 349 350 351 352 353 352 352 353 353 354 353 351 351 350 348 351 352 356 356 353 354 354 355 352 354 353 350
324 327 327 328 329 332 336 334 334 342 341 343 344 343 345 347 352 352 353 352 351 350 350 350 351 352 353 352 351 351 352 352 353 352 351 351 351 352 353 356 355 353 355 356 356 353 353 352 352
320 325 327 330 331 330 331 332 334 339 339 340 343 339 338 340 345 341 342 349 352 350 350 350 350 350 351 352 352 352 352 352 351 352 350 350 351 351 354 354 354 354 353 355 356 354 350 354 354
Wind_Speed
10 9 5 2 1 3 2 5 4 8 10 5 12 6 10 7 6 6 25 20 25 23 19 16 16 14 14 14 14 14 13 13 12 11 12 12 12 11 11 11 11 12 13 14 14 15 15 15 15
11 9 5 2 1 1 3 7 9 7 10 18 10 12 6 10 9 16 22 26 25 23 20 16 15 14 13 13 12 12 12 12 12 12 11 11 12 12 11 12 11 12 13 14 15 15 16 15 16
10 6 3 3 2 1 5 8 12 14 17 14 7 8 4 5 8 24 25 27 24 22 19 15 14 14 13 12 11 11 11 11 11 11 12 12 12 12 12 11 12 13 14 14 14 17 17 16 14
9 6 4 3 8 8 9 11 16 15 14 6 12 8 7 1 22 17 28 25 23 20 18 15 13 13 12 12 11 10 10 10 10 12 12 12 13 13 12 13 13 14 13 14 16 16 17 15 12
6 4 4 1 9 7 13 11 13 11 12 6 2 7 8 12 12 28 26 23 22 20 18 15 14 13 13 11 10 10 10 10 9 11 12 12 13 12 13 13 14 13 13 14 15 15 19 12 12
3 3 3 5 9 9 10 1 9 9 14 6 11 12 7 13 24 26 24 21 20 19 18 14 12 12 11 10 10 10 10 11 9 10 12 13 13 14 14 14 15 14 13 13 14 17 16 15 12
3 2 3 5 7 7 5 3 3 7 11 8 5 8 11 20 26 24 23 19 18 17 16 13 11 9 10 10 10 10 11 10 10 11 13 14 14 13 14 14 14 14 13 14 18 14 16 15 12
3 3 4 2 2 6 1 5 4 10 13 13 9 6 19 25 25 24 21 20 17 15 14 13 11 11 10 9 10 11 10 11 12 13 13 14 15 15 14 16 13 13 13 15 15 15 14 14 13
4 2 5 6 3 8 6 5 3 3 7 4 5 7 25 29 26 24 22 20 17 14 14 13 13 11 10 11 11 11 11 12 13 12 14 12 13 12 13 13 14 13 13 14 15 15 14 14 12
4 0 8 9 9 9 9 7 9 5 8 5 9 19 29 29 26 24 22 21 18 15 13 13 13 12 11 11 9 9 9 10 10 10 10 11 11 12 13 13 14 13 13 12 14 14 11 9 10
3 2 3 10 10 10 10 12 9 6 7 9 16 21 27 28 25 23 20 20 18 15 14 13 13 12 11 11 10 9 8 10 11 11 10 12 12 11 13 13 12 11 10 11 10 8 9 9 10
5 2 2 7 4 5 7 12 8 9 5 4 14 24 28 23 23 22 21 19 19 16 14 13 13 13 10 11 10 10 9 10 11 10 10 11 11 11 11 11 11 9 9 8 7 8 6 6 7
9 4 1 2 4 3 10 8 8 9 7 13 20 25 24 21 23 20 20 18 17 16 15 14 13 13 12 11 11 10 10 10 10 10 9 9 11 11 11 11 9 8 7 7 7 7 7 6 8
4 5 4 4 5 7 6 12 7 8 13 16 21 23 22 21 22 20 19 18 17 16 15 15 14 13 13 11 11 9 9 9 9 10 9 9 11 10 10 9 7 7 6 6 6 6 7 7 8
5 7 7 6 10 8 10 10 8 14 15 16 21 20 19 19 21 19 18 18 17 16 15 15 14 14 13 12 10 7 9 9 9 10 8 8 8 7 6 6 6 5 4 3 4 5 7 8 8
11 10 9 10 10 7 6 9 16 15 16 17 20 19 18 18 19 18 18 17 17 16 17 15 14 14 13 12 10 9 9 7 6 7 7 5 4 5 5 6 4 5 4 4 3 3 7 7 8
10 11 10 10 3 9 10 13 11 16 14 16 18 19 18 17 19 18 18 17 18 17 17 17 14 15 13 12 11 9 8 6 5 6 6 5 4 6 6 6 6 4 5 4 4 5 5 6 6
15 11 12 12 8 11 6 12 15 15 14 16 17 17 18 17 18 20 17 17 16 17 16 16 16 15 14 12 10 9 8 6 5 6 6 5 4 4 5 5 5 7 6 4 5 4 3 4 3
12 11 12 10 8 7 7 13 14 15 13 12 16 16 18 18 21 20 18 17 17 17 17 17 18 17 16 14 13 10 10 7 7 6 6 5 6 5 5 4 6 6 6 4 4 5 5 5 3
11 12 14 10 6 6 9 10 14 14 11 15 15 16 18 19 20 21 19 18 17 18 18 17 18 17 17 15 13 9 7 6 8 7 6 7 6 5 5 5 7 6 6 5 3 5 5 4 2
13 14 11 13 6 3 12 8 10 15 14 11 14 14 16 20 21 19 20 20 18 19 19 18 18 18 17 14 12 8 7 6 8 9 8 8 7 7 6 8 5 5 4 7 4 5 4 5 2
16 5 6 9 10 10 14 7 6 6 7 7 9 13 14 19 17 18 22 21 21 21 20 18 17 18 18 16 13 11 10 9 9 9 8 7 8 7 8 7 7 5 5 4 5 4 2 3 7
5 10 10 8 10 4 13 7 8 9 9 11 12 12 16 15 19 20 25 25 25 23 21 21 19 19 18 18 15 13 12 10 7 9 7 8 7 7 7 7 8 6 5 6 6 5 3 3 1
8 10 9 8 9 11 10 11 6 5 4 3 2 8 17 18 17 20 25 26 25 24 24 21 22 22 21 19 18 16 13 12 9 10 9 9 9 8 8 7 8 7 6 6 7 6 5 4 3
14 16 10 11 9 9 12 7 11 8 6 6 6 6 10 21 19 17 19 26 27 25 23 23 23 23 23 22 20 19 17 14 13 11 12 9 9 8 9 9 8 8 8 7 7 6 6 6 5
19 18 10 13 13 12 6 9 8 8 8 10 11 9 8 13 19 21 18 26 28 25 24 22 23 24 24 24 23 20 18 16 16 15 13 12 10 10 7 9 9 8 8 9 8 7 8 7 8
19 15 6 6 11 9 13 13 13 8 11 13 14 13 9 1 9 16 28 24 26 28 26 25 23 21 23 25 22 22 20 20 17 15 14 14 12 10 10 10 10 10 9 10 9 9 8 8 9
7 9 10 9 14 14 10 16 10 7 10 13 14 15 16 11 5 8 17 22 21 24 27 26 24 23 23 24 24 24 23 21 20 17 18 16 13 14 11 13 13 11 11 10 8 8 8 9 9
6 11 10 8 5 14 10 8 7 9 8 10 12 14 15 18 15 3 2 4 14 18 20 23 24 23 21 22 23 23 23 23 21 21 20 20 18 15 14 14 14 14 14 13 12 11 9 11 11
3 5 9 11 12 6 6 7 6 11 7 9 12 14 15 17 18 17 26 16 12 13 16 19 20 22 22 20 20 23 23 22 22 22 21 19 20 18 17 15 14 14 15 15 15 14 12 12 12
Wind_Direction
152 154 158 322 214 273 95 71 82 127 127 110 120 130 124 96 358 62 140 143 145 144 145 139 139 136 134 123 119 118 114 108 109 98 98 100 102 101 107 98 102 96 95 93 92 90 89 89 90
162 154 168 99 179 182 97 71 114 106 114 126 112 129 122 91 60 128 130 144 146 145 145 143 145 143 135 129 121 118 116 114 112 102 101 94 98 102 105 99 100 105 97 93 92 91 86 82 84
170 199 234 222 200 135 88 89 99 111 128 129 108 60 49 65 123 140 137 145 145 144 144 146 142 146 140 132 123 119 117 114 108 101 93 94 93 93 93 98 101 97 96 93 94 93 89 87 82
184 207 237 250 104 84 70 104 117 130 104 68 122 84 99 171 134 133 143 145 145 143 142 146 136 138 139 135 127 118 118 108 103 95 94 92 93 92 90 97 101 99 97 97 97 102 97 90 88
231 263 246 184 93 98 90 103 129 131 92 95 173 98 95 122 130 140 144 148 145 145 141 139 135 133 133 136 123 115 116 113 106 97 95 95 91 92 93 96 98 102 98 101 104 110 96 106 98
248 318 245 99 106 99 106 96 165 125 116 115 110 112 86 137 144 147 146 147 147 143 141 139 138 136 133 126 121 119 116 116 112 105 102 98 94 97 97 98 104 101 102 97 103 109 106 102 99
266 245 25 82 127 109 96 88 94 123 135 117 183 100 123 144 147 149 147 146 147 143 140 143 142 135 130 125 122 121 118 118 113 107 103 99 96 97 102 101 99 105 103 99 96 106 99 91 88
266 277 131 101 134 111 41 96 45 51 72 121 163 150 155 147 152 149 147 147 150 149 144 140 142 138 136 127 124 123 124 121 115 111 107 105 97 93 101 104 104 105 106 100 106 103 97 93 87
243 254 86 66 74 113 133 121 44 304 116 80 114 134 145 150 153 152 151 149 153 151 151 150 139 136 127 126 123 116 115 113 115 107 106 102 100 97 95 103 108 108 106 96 97 102 103 104 88
259 315 67 75 98 134 136 139 135 162 138 113 140 114 147 155 158 158 158 153 158 158 155 145 139 138 137 128 127 120 117 114 116 118 113 106 102 92 105 108 112 110 108 99 103 102 91 124 93
233 160 71 80 87 127 135 142 147 135 200 163 154 150 154 159 163 162 158 160 157 158 153 149 144 142 142 129 132 120 115 118 118 120 116 115 112 108 107 110 110 108 119 109 96 84 81 70 67
242 144 8 91 165 120 144 137 146 172 61 142 154 161 156 163 166 165 163 168 152 163 159 155 149 147 140 138 131 124 117 120 120 119 118 119 116 112 112 113 117 116 104 104 94 83 67 70 78
235 154 187 223 183 53 138 149 121 143 113 128 150 158 160 166 167 166 164 161 158 167 164 160 154 153 148 148 135 125 124 122 120 117 119 116 117 114 114 113 114 111 110 100 91 77 65 78 92
190 241 272 293 207 147 142 127 123 119 129 140 157 161 164 170 168 166 172 164 166 167 171 163 161 160 158 150 149 140 128 124 121 119 123 116 113 115 117 116 112 114 104 95 85 74 67 90 102
218 231 173 97 130 152 132 152 125 144 142 160 164 165 168 175 169 174 175 170 170 171 171 168 166 166 165 157 154 148 143 134 126 126 128 125 120 123 128 119 117 120 110 100 90 82 81 102 104
217 229 187 138 152 145 241 118 129 146 146 162 174 169 175 180 179 179 178 176 172 172 172 174 172 170 168 162 158 149 147 150 141 143 144 140 139 142 155 149 135 138 125 117 100 103 95 97 103
204 189 161 145 157 156 247 125 144 151 161 165 184 175 180 181 185 181 181 180 176 176 176 175 177 173 171 166 163 160 157 155 160 162 155 163 162 154 145 146 142 147 140 116 118 110 109 111 100
186 185 170 141 164 179 149 110 149 164 181 170 178 184 182 184 186 180 182 180 182 181 182 179 178 179 176 173 172 171 168 171 170 169 174 171 158 160 146 156 158 162 148 129 127 121 114 89 77
180 186 157 109 152 182 150 138 154 167 180 181 184 191 184 187 183 181 184 180 183 188 187 185 182 183 182 182 183 186 188 187 189 183 178 186 182 173 173 167 161 173 160 120 147 152 137 122 106
197 167 142 135 115 223 160 162 149 156 181 187 189 189 192 189 184 188 188 185 188 190 192 191 191 188 189 190 191 197 207 196 192 201 190 184 183 186 172 182 173 178 164 155 161 177 146 118 90
195 190 164 160 154 180 152 142 168 164 150 193 176 209 195 196 195 188 192 192 190 190 194 196 195 193 193 193 191 191 189 182 185 185 186 197 199 189 174 175 176 173 181 174 163 170 214 128 151
178 226 161 172 198 186 217 124 111 161 207 183 192 194 218 191 213 192 197 197 197 196 199 195 200 198 198 199 199 206 207 201 194 195 188 181 188 192 182 191 185 180 179 180 183 185 189 239 141
190 167 196 193 219 198 202 232 99 126 171 202 202 191 213 228 200 201 194 194 201 201 201 199 198 203 204 206 212 211 226 210 200 203 174 194 190 201 190 188 189 187 185 195 201 199 199 182 198
123 174 174 197 215 220 185 244 99 91 51 127 203 253 203 216 213 206 199 194 202 204 208 203 201 202 205 210 213 218 217 233 219 204 195 198 198 199 205 196 192 194 198 204 197 199 214 232 235
197 179 173 195 201 226 150 217 81 93 53 18 6 338 246 194 212 213 203 199 199 200 202 205 206 208 208 209 215 217 221 219 226 214 217 203 202 206 197 207 198 188 202 208 200 220 228 226 227
205 204 190 191 196 172 150 158 111 100 72 44 24 19 353 207 194 194 221 203 202 203 200 203 205 211 211 211 215 215 219 219 224 221 223 210 218 207 205 208 215 212 205 205 198 202 220 214 214
193 222 319 272 205 200 148 87 123 105 59 42 31 22 7 252 242 198 193 207 207 203 205 207 210 212 214 215 216 214 214 217 224 237 227 230 229 226 207 203 206 212 213 213 197 208 216 219 213
274 213 204 236 188 212 161 169 105 90 44 36 25 21 11 23 203 237 203 196 203 209 209 213 214 213 214 214 215 217 216 218 220 229 235 239 240 233 216 210 207 209 213 215 213 207 205 207 220
175 206 236 257 275 217 156 147 93 81 62 47 35 31 29 24 34 170 178 187 208 210 211 214 218 220 217 215 217 220 221 220 222 222 233 236 236 237 229 220 215 214 218 214 216 223 213 214 225
296 323 256 225 199 254 260 101 112 98 75 75 61 48 43 37 38 34 28 19 193 213 230 212 219 221 222 223 220 222 224 224 223 224 224 230 232 231 229 229 228 219 224 225 218 218 219 217 221